[[{"header":{"parameterUnit":"m.s-1","parameterCategory":1,"la1":30.2991,"la2":30.254,"lo1":-89.0895,"lo2":-89.0444,"dy":0.0017,"dx":0.0017,"nx":28,"ny":28,"refTime":"2024-07-23T03:00:00:Z","depth":0,"parameterNumber":2,"parameterNumberName":"U-component_of_WINDS"},"data":[0,0,0,0,0,0,0,0,0,0,0,0,0,0,0,0,0,0,0,0,0,0,0,0,0,0,0,0,0,0,0,0,0,0,0,0,0,0,0,0,0,0,0,0,0,0,0,0,0,0,0,0,0,0,0,0,0,0,0.3512,0.3512,0,0.3567,0.3568,0.3569,0.3595,0.3595,0.3595,0.3595,0.3654,0.3655,0.3657,0,0,0,0,0,0,0,0,0,0,0,0,0,0.343,0.3431,0.3512,0.3512,0.3513,0.3567,0.3568,0.3569,0.3595,0.3595,0.3595,0.3594,0.3653,0.3655,0.3657,0,0,0,0,0,0,0,0,0,0,0,0,0,0.3474,0.3432,0.3512,0.3532,0.3535,0.3567,0.3568,0.3569,0.3595,0.3595,0.3595,0.3594,0.3653,0.3655,0.3658,0.3674,0,0,0.3665,0.3666,0,0,0,0,0,0,0,0,0.3471,0.3476,0.3529,0.3531,0.3534,0.3574,0.3561,0.3604,0.3595,0.3572,0.3595,0.3594,0.3628,0.3632,0.3643,0.3677,0.3679,0.3665,0.3667,0.3668,0.3668,0,0,0,0,0,0,0,0.3468,0.3474,0.3534,0.3529,0.3533,0.354,0.3546,0.3569,0.36,0.3574,0.3576,0.3582,0.3629,0.364,0.3644,0.368,0.3665,0.3667,0.3669,0.367,0.3731,0.3731,0,0,0,0,0,0,0.3461,0.3472,0.3532,0.3535,0.3502,0.3541,0.3548,0.3561,0.3599,0.3605,0.3582,0.3583,0.3636,0.3641,0.3646,0.3668,0.3668,0.367,0.3671,0.3731,0.3731,0.3731,0,0,0,0,0,0,0.3459,0.3466,0.353,0.3504,0.3513,0.3543,0.3557,0.3562,0.3574,0.3605,0.3611,0.3588,0.3636,0.3643,0.3667,0.3671,0.3671,0.3673,0.3731,0.3731,0.3731,0.3712,0,0,0,0,0,0,0.3457,0.3466,0.3471,0.3504,0.3514,0.3548,0.3557,0.3563,0.3578,0.3579,0.3613,0.3618,0.3637,0.3663,0.3669,0.3674,0.3675,0.373,0.3731,0.3731,0.3713,0.3712,0.3711,0,0,0,0,0,0.3454,0.3464,0.3472,0.3479,0.3522,0.3549,0.3554,0.3575,0.3578,0.3584,0.3605,0.3617,0.3669,0.3665,0.3673,0.3678,0.373,0.3731,0.3731,0.3713,0.3712,0.3711,0,0,0,0,0,0,0.3432,0.3469,0.3477,0.3499,0.352,0.3553,0.3562,0.3573,0.3595,0.3596,0.3622,0.3629,0.3651,0.3667,0.3662,0.3696,0.3701,0.3703,0.3685,0.3684,0.3683,0.3679,0.3677,0,0,0,0,0,0.343,0.3448,0.3479,0.3495,0.3505,0.3531,0.3544,0.3558,0.3582,0.3591,0.3613,0.3637,0.3658,0.3672,0.3694,0.3715,0.3723,0.3723,0.3722,0.3721,0.3723,0.3735,0.3736,0.3732,0.3732,0.3732,0,0,0.3425,0.3447,0.3457,0.3491,0.3509,0.3528,0.3539,0.3558,0.3573,0.3594,0.3618,0.3635,0.3663,0.3685,0.3696,0.37,0.3725,0.3722,0.3721,0.3723,0.3736,0.3736,0.3736,0.3733,0.3733,0.3733,0,0,0.3426,0.3445,0.346,0.3478,0.3505,0.3523,0.3527,0.3558,0.357,0.3594,0.361,0.3628,0.3665,0.3684,0.3698,0.3707,0.3719,0.3713,0.3709,0.3722,0.3722,0.3722,0.3726,0.3726,0.3715,0.3715,0.3715,0,0.3417,0.3445,0.3466,0.3485,0.3499,0.3519,0.3535,0.3552,0.3585,0.3595,0.3598,0.3645,0.3665,0.3692,0.3694,0.3705,0.3711,0.371,0.372,0.3721,0.3721,0.3725,0.3726,0.3714,0.3714,0.3714,0.3714,0,0.3433,0.3452,0.3461,0.3492,0.3508,0.3525,0.3549,0.3563,0.3576,0.3593,0.3618,0.3642,0.3669,0.3677,0.369,0.3707,0.3708,0.3715,0.372,0.372,0.3724,0.3725,0.3713,0.3713,0.3713,0.3713,0,0,0.3422,0.3464,0.3467,0.3482,0.3514,0.3529,0.3548,0.3573,0.3585,0.3607,0.3623,0.3654,0.3661,0.3678,0.3693,0.3704,0.3709,0.371,0.3711,0.3709,0.3729,0.3723,0.3725,0.3717,0.3717,0.3718,0.3727,0,0.3427,0.346,0.348,0.3505,0.3523,0.3543,0.3559,0.358,0.3597,0.3616,0.3635,0.3656,0.3664,0.3674,0.3685,0.3706,0.3713,0.3705,0.3733,0.3734,0.3726,0.3726,0.3721,0.3728,0.3728,0.3729,0.3729,0,0.3438,0.3459,0.3486,0.3516,0.3525,0.3539,0.3564,0.3581,0.3607,0.3618,0.3636,0.3652,0.3673,0.3676,0.3705,0.3699,0.3712,0.3724,0.3725,0.3728,0.3731,0.373,0.3731,0.3732,0.3731,0.3731,0.3731,0,0.3427,0.3463,0.3484,0.3495,0.3531,0.354,0.3556,0.3581,0.3595,0.3618,0.3628,0.3652,0.3666,0.3685,0.3707,0.3708,0.3735,0.374,0.3745,0.3745,0.375,0.375,0.3753,0.3758,0.3758,0.3758,0.3758,0,0.3432,0.3447,0.3479,0.3492,0.351,0.3533,0.3551,0.3568,0.359,0.3607,0.3626,0.3641,0.3669,0.3689,0.3706,0.3728,0.3734,0.3744,0.3749,0.3743,0.3741,0.3752,0.3752,0.3758,0.3758,0.3758,0.3758,0,0.3423,0.3445,0.3469,0.35,0.3509,0.3521,0.3548,0.3562,0.3579,0.3601,0.3607,0.3635,0.3659,0.3683,0.3715,0.3726,0.3748,0.3754,0.3739,0.3742,0.3746,0.3745,0.3756,0.3759,0.3762,0.3762,0.3762,0,0.3424,0.3436,0.3469,0.3482,0.3496,0.3516,0.3531,0.3554,0.3569,0.3599,0.3609,0.3633,0.3655,0.3692,0.3715,0.374,0.3747,0.3749,0.3751,0.3745,0.3747,0.3746,0.3748,0.3748,0.3748,0.3748,0.3748,0,0.3424,0.3434,0.3454,0.3478,0.3495,0.3515,0.3536,0.3546,0.3573,0.3589,0.3613,0.3629,0.3662,0.3686,0.3714,0.3731,0.3744,0.3747,0.375,0.3744,0.3735,0.374,0.3737,0.3747,0.3747,0.3747,0.3747,0.3747,0.342,0.3432,0.3457,0.3479,0.3497,0.3517,0.3531,0.355,0.3571,0.3598,0.3611,0.3635,0.3661,0.3699,0.3716,0.3736,0.3739,0.3743,0.3744,0.3745,0.3743,0.3731,0.3741,0.3741,0.3741,0.3741,0.3741,0,0.3421,0.3438,0.3458,0.3487,0.3504,0.3515,0.3538,0.3553,0.3573,0.3596,0.3616,0.3644,0.3668,0.3694,0.372,0.373,0.3737,0.3736,0.3736,0.374,0.3738,0.3734,0.3731,0.3731,0.3731,0.3731,0.3731,0.3731,0.3424,0.3445,0.3458,0.3488,0.3506,0.3529,0.3542,0.356,0.3578,0.3608,0.3628,0.3644,0.3668,0.3696,0.3719,0.3726,0.3735,0.3732,0.3741,0.3739,0.374,0.3741,0.3736,0.3734,0.3734,0.374,0.3741,0.3741]},{"header":{"parameterUnit":"m.s-1","parameterCategory":1,"la1":30.2991,"la2":30.254,"lo1":-89.0895,"lo2":-89.0444,"dy":0.0017,"dx":0.0017,"nx":28,"ny":28,"refTime":"2024-07-23T03:00:00:Z","depth":0,"parameterNumber":3,"parameterNumberName":"V-component_of_WINDS"},"data":[0,0,0,0,0,0,0,0,0,0,0,0,0,0,0,0,0,0,0,0,0,0,0,0,0,0,0,0,0,0,0,0,0,0,0,0,0,0,0,0,0,0,0,0,0,0,0,0,0,0,0,0,0,0,0,0,0,0,3.7981,3.7982,0,3.8017,3.8017,3.8018,3.7974,3.7973,3.7971,3.797,3.8002,3.8004,3.8006,0,0,0,0,0,0,0,0,0,0,0,0,0,3.787,3.7872,3.7981,3.7982,3.7982,3.8017,3.8017,3.8018,3.7975,3.7973,3.7971,3.7969,3.8001,3.8004,3.8007,0,0,0,0,0,0,0,0,0,0,0,0,0,3.7913,3.7873,3.7981,3.7965,3.7964,3.8017,3.8017,3.8018,3.7975,3.7973,3.797,3.7968,3.8,3.8003,3.8007,3.8076,0,0,3.8018,3.8019,0,0,0,0,0,0,0,0,3.7911,3.7917,3.7967,3.7966,3.7965,3.7989,3.799,3.8037,3.7976,3.7971,3.797,3.7967,3.7999,3.8003,3.8014,3.8078,3.8079,3.8018,3.802,3.8022,3.8023,0,0,0,0,0,0,0,3.7908,3.7915,3.7995,3.7968,3.7966,3.7954,3.7957,3.7999,3.7998,3.7971,3.7968,3.7973,3.7998,3.8011,3.8015,3.808,3.8018,3.8021,3.8023,3.8024,3.82,3.8203,0,0,0,0,0,0,3.7907,3.7913,3.7994,3.7996,3.7932,3.7958,3.7962,3.7984,3.7997,3.7997,3.7975,3.7971,3.8006,3.8011,3.8016,3.8097,3.8022,3.8025,3.8027,3.8198,3.8201,3.8204,0,0,0,0,0,0,3.7905,3.7915,3.7993,3.7954,3.7963,3.7962,3.7987,3.7986,3.7999,3.8,3.7999,3.7989,3.8005,3.8011,3.8062,3.8098,3.8026,3.803,3.8195,3.8199,3.8202,3.8261,0,0,0,0,0,0,3.7902,3.7915,3.7942,3.7955,3.7965,3.804,3.7989,3.7988,3.8005,3.8,3.8013,3.8013,3.8003,3.8057,3.8065,3.8101,3.8032,3.8192,3.8197,3.8201,3.8256,3.8267,3.8276,0,0,0,0,0,3.7898,3.7957,3.7944,3.7954,3.8,3.8042,3.8048,3.8037,3.8008,3.8035,3.8036,3.8012,3.8092,3.8062,3.8071,3.8109,3.8189,3.8195,3.8201,3.8252,3.8265,3.8276,0,0,0,0,0,0,3.7947,3.7958,3.7944,3.8009,3.8025,3.8035,3.8069,3.8051,3.8074,3.8068,3.8052,3.8055,3.811,3.8114,3.808,3.8176,3.8136,3.8144,3.8172,3.8184,3.8194,3.8191,3.8035,0,0,0,0,0,3.7966,3.8,3.8007,3.8064,3.8073,3.8069,3.8087,3.8077,3.8093,3.8099,3.8103,3.8118,3.8146,3.8165,3.8191,3.8256,3.8258,3.8287,3.8297,3.8305,3.8312,3.8346,3.8358,3.8223,3.8223,3.8223,0,0,3.8004,3.8014,3.8037,3.8074,3.8085,3.812,3.8075,3.8114,3.8139,3.8104,3.8153,3.8157,3.8171,3.823,3.8256,3.8235,3.8349,3.8312,3.8319,3.8321,3.8353,3.8366,3.8377,3.8227,3.8226,3.8225,0,0,3.8091,3.8103,3.8151,3.8163,3.8181,3.8178,3.819,3.8202,3.8204,3.8253,3.8227,3.8255,3.8305,3.8316,3.8329,3.8419,3.8398,3.8428,3.8479,3.8513,3.8523,3.8533,3.8564,3.8576,3.8435,3.8435,3.8435,0,3.8136,3.8189,3.8177,3.8218,3.8234,3.8205,3.8252,3.8264,3.829,3.8301,3.8278,3.8339,3.8347,3.8407,3.8429,3.844,3.8452,3.8427,3.8523,3.8532,3.8541,3.8571,3.8583,3.8439,3.8438,3.8438,3.8437,0,3.8242,3.8279,3.8315,3.8342,3.8362,3.8406,3.8399,3.842,3.8408,3.8407,3.8457,3.8465,3.8492,3.8506,3.8494,3.8564,3.8551,3.8526,3.8485,3.8557,3.8585,3.8597,3.8444,3.8442,3.8441,3.844,0,0,3.8362,3.8381,3.8395,3.8406,3.8423,3.8451,3.8492,3.852,3.8538,3.8556,3.859,3.8632,3.8609,3.8622,3.8611,3.8641,3.8711,3.8612,3.8612,3.863,3.8788,3.8807,3.882,3.8697,3.8699,3.8701,3.8786,0,3.8449,3.8523,3.8513,3.8583,3.8616,3.8589,3.8624,3.8638,3.8638,3.8665,3.8663,3.8694,3.8661,3.8669,3.8697,3.8697,3.8742,3.869,3.8727,3.8728,3.8724,3.8835,3.8855,3.8936,3.8797,3.8799,3.88,0,3.8561,3.8584,3.8658,3.867,3.8683,3.8716,3.874,3.8766,3.878,3.8778,3.8794,3.8777,3.8817,3.8775,3.8829,3.8793,3.8807,3.8809,3.8812,3.8815,3.8769,3.8841,3.8961,3.8973,3.8818,3.8816,3.8815,0,3.864,3.869,3.874,3.8751,3.8766,3.8789,3.8796,3.8808,3.8825,3.8845,3.8856,3.888,3.8894,3.8912,3.8902,3.8873,3.8957,3.8915,3.8955,3.8956,3.8975,3.8974,3.9099,3.8984,3.8984,3.8983,3.8983,0,3.8739,3.8785,3.8776,3.8807,3.8858,3.8845,3.8894,3.8898,3.8908,3.8938,3.8915,3.8943,3.8928,3.8955,3.8947,3.8992,3.8998,3.8996,3.8994,3.8999,3.8999,3.9008,3.9002,3.8986,3.8986,3.8985,3.8985,0,3.8836,3.8833,3.8886,3.8896,3.8899,3.8936,3.8943,3.8971,3.8969,3.9007,3.9015,3.9011,3.9041,3.9033,3.9065,3.906,3.9117,3.9107,3.9113,3.9111,3.9152,3.9148,3.9287,3.9305,3.9178,3.9179,3.918,0,3.89,3.8935,3.8948,3.8968,3.8977,3.9008,3.9025,3.9013,3.9032,3.905,3.9076,3.9104,3.9126,3.9175,3.9174,3.9198,3.9189,3.9236,3.9192,3.9196,3.9189,3.9188,3.9191,3.9245,3.9246,3.9247,3.9248,0,3.9012,3.9008,3.9036,3.9062,3.9084,3.9103,3.9121,3.9137,3.9126,3.9148,3.9179,3.9196,3.923,3.9258,3.928,3.9285,3.9265,3.9262,3.9273,3.9278,3.928,3.928,3.9137,3.9259,3.9258,3.9257,3.9257,3.9256,3.9094,3.9124,3.9138,3.9169,3.9181,3.9197,3.9224,3.9226,3.9252,3.9279,3.927,3.9305,3.9317,3.9345,3.9353,3.9379,3.9361,3.9376,3.938,3.9385,3.939,3.9276,3.9383,3.9383,3.9382,3.9382,3.9382,0,3.9206,3.9213,3.9242,3.9267,3.9291,3.9271,3.9289,3.9309,3.9341,3.9355,3.9377,3.9412,3.9439,3.944,3.9465,3.9486,3.9477,3.9493,3.9491,3.9492,3.9405,3.9393,3.9499,3.9499,3.9499,3.9499,3.9499,3.9499,3.9266,3.9315,3.9313,3.9367,3.9374,3.941,3.9422,3.9436,3.9447,3.9488,3.951,3.9511,3.9519,3.9544,3.9567,3.9567,3.9577,3.9596,3.9592,3.951,3.9499,3.9487,3.9476,3.9598,3.9599,3.9678,3.9678,3.9679]}]]